RH
35 38 37 36 36 36 36 36 36 36 38 40 41 41 42 43 44 44 42 41 41 41 41 43 44 43 39 35 34 32 28 23 21 21 25 28 28 27 25 22 21 21 20
38 38 39 39 39 40 42 45 46 48 49 48 50 50 49 48 48 47 46 44 42 41 40 41 42 43 44 43 40 37 36 35 33 28 24 29 30 32 32 31 29 26 23
43 44 46 48 48 48 48 50 52 53 52 52 50 47 45 45 44 43 41 40 41 42 40 38 39 41 43 45 48 47 46 45 43 41 39 35 32 40 40 36 36 39 36
47 48 48 48 49 50 53 53 50 46 43 40 38 38 36 35 34 32 31 34 39 38 38 40 40 39 40 44 46 48 52 56 56 52 47 44 43 40 37 46 46 40 41
47 47 47 48 50 49 46 42 38 37 37 36 35 33 31 30 30 29 31 35 38 40 41 39 38 40 40 42 45 46 48 49 53 58 61 63 60 55 51 48 47 52 55
44 44 43 41 38 37 36 35 36 36 34 32 29 28 27 26 25 30 33 34 38 42 40 33 38 42 42 42 41 45 51 55 54 54 53 55 60 65 68 67 62 55 54
36 35 34 34 34 36 38 37 35 31 27 27 26 25 24 23 26 28 29 34 33 30 25 28 31 37 45 54 48 39 42 47 54 58 58 60 61 62 64 68 71 73 71
31 35 38 40 40 39 35 29 26 24 24 24 23 22 22 20 23 21 19 19 20 24 26 27 30 33 33 32 32 38 41 41 41 47 56 58 64 70 74 73 72 72 73
41 42 41 37 33 28 26 22 20 19 20 19 21 21 23 23 20 20 19 23 25 21 24 24 23 21 23 21 22 25 30 40 45 48 51 51 59 62 70 78 79 84 78
42 40 36 31 28 25 21 20 19 18 19 20 19 20 20 22 26 25 23 19 19 18 16 17 17 18 20 23 27 31 35 40 46 47 48 57 64 67 68 76 84 83 81
38 33 30 28 24 22 21 19 18 18 18 21 20 20 20 21 22 21 21 21 20 19 19 21 23 20 21 24 29 33 35 35 40 47 52 53 53 62 71 77 80 92 94
30 27 26 24 22 20 20 20 20 19 19 19 19 19 22 25 24 22 20 18 19 19 21 18 19 19 29 31 33 34 32 31 34 41 48 51 52 55 64 70 79 81 88
30 29 27 25 22 22 22 21 21 20 20 21 20 22 19 19 20 19 20 19 21 20 20 18 20 17 21 26 29 29 25 22 24 31 38 43 45 44 47 59 68 76 82
32 31 27 26 24 24 23 22 22 22 22 21 19 19 18 18 16 17 19 23 21 18 13 13 16 19 19 20 20 17 16 14 20 28 32 39 42 38 36 38 46 57 69
34 31 27 26 24 24 23 23 22 20 19 19 18 16 16 15 16 16 21 22 25 23 17 14 17 17 21 24 24 29 24 28 35 39 32 28 34 45 47 38 38 43 60
30 27 26 26 25 25 24 21 20 20 20 17 17 16 16 16 17 19 22 24 25 28 28 22 19 20 22 33 31 32 35 32 28 31 34 35 38 40 43 45 49 42 40
27 27 27 27 26 23 21 22 22 20 18 17 17 18 19 20 22 23 25 25 28 36 39 30 30 28 27 29 29 37 37 40 34 35 37 38 37 35 31 39 37 37 34
28 28 28 25 23 23 24 24 21 18 17 17 18 19 22 24 25 28 28 30 37 38 39 44 36 35 29 32 37 42 38 36 31 27 33 35 36 39 39 32 40 39 45
30 28 25 24 25 26 25 22 19 17 17 17 18 22 24 28 29 30 34 37 36 40 46 51 43 36 38 45 44 40 34 26 28 33 38 41 41 40 43 40 34 41 41
28 26 26 27 28 27 22 19 17 16 17 18 20 24 30 32 33 35 37 41 43 45 44 49 44 46 51 48 51 47 35 37 36 33 36 32 30 34 36 46 50 52 56
27 27 28 30 27 21 17 16 17 18 19 21 23 30 33 34 37 43 45 46 47 50 49 49 48 56 54 49 44 45 47 40 32 42 39 34 42 43 41 56 59 56 56
28 30 30 26 21 17 17 18 20 21 23 25 32 33 34 34 39 42 44 44 53 57 57 60 59 62 55 48 45 50 52 48 38 36 41 37 46 44 42 45 53 56 55
30 29 25 20 18 18 19 20 22 25 26 33 34 35 36 38 43 43 43 47 53 58 65 62 62 62 55 48 55 55 51 46 37 37 54 49 60 60 63 62 59 53 51
29 24 21 19 19 19 21 23 25 27 32 36 38 42 44 42 42 48 53 55 57 60 56 60 63 59 57 60 60 55 45 42 48 60 74 68 84 80 84 74 68 61 58
23 21 20 20 20 22 24 27 30 35 37 39 43 46 47 48 47 52 60 62 56 50 54 58 59 59 61 57 53 49 52 66 70 80 92 91 93 97 90 80 69 67 65
21 21 21 22 23 24 28 32 39 41 41 42 42 45 48 47 49 61 65 63 59 55 58 54 53 50 49 46 54 65 75 85 88 87 92 93 95 97 82 78 80 78 72